TimeMST,TemperatureF,Dew PointF,Humidity,Sea Level PressureIn,VisibilityMPH,Wind Direction,Wind SpeedMPH,Gust SpeedMPH,PrecipitationIn,Events,Conditions,WindDirDegrees,DateUTC
12:16 AM,1.4,-4.0,78,29.78,-9999.0,Calm,Calm,-,N/A,,Clear,0,2013-02-20 07:16:00
12:36 AM,1.4,-4.0,78,29.78,-9999.0,Calm,Calm,-,N/A,,Clear,0,2013-02-20 07:36:00
12:56 AM,1.4,-4.0,78,29.77,-9999.0,Calm,Calm,-,N/A,,Clear,0,2013-02-20 07:56:00
1:16 AM,1.4,-4.0,78,29.77,-9999.0,Calm,Calm,-,N/A,,Clear,0,2013-02-20 08:16:00
1:36 AM,-0.4,-5.8,78,29.77,-9999.0,Calm,Calm,-,N/A,,Clear,0,2013-02-20 08:36:00
1:56 AM,-0.4,-4.0,85,29.77,-9999.0,Calm,Calm,-,N/A,,Unknown,0,2013-02-20 08:56:00
2:36 AM,-0.4,-5.8,78,29.75,-9999.0,Calm,Calm,-,N/A,,Clear,0,2013-02-20 09:36:00
2:56 AM,-2.2,-5.8,85,29.75,-9999.0,Calm,Calm,-,N/A,,Unknown,0,2013-02-20 09:56:00
3:15 AM,-2.2,-5.8,85,29.74,-9999.0,Calm,Calm,-,N/A,,Unknown,0,2013-02-20 10:15:00
3:36 AM,-2.2,-7.6,78,29.74,-9999.0,Calm,Calm,-,N/A,,Clear,0,2013-02-20 10:36:00
3:56 AM,-4.0,-7.6,85,29.74,-9999.0,Calm,Calm,-,N/A,,Clear,0,2013-02-20 10:56:00
4:15 AM,-2.2,-7.6,78,29.74,-9999.0,Calm,Calm,-,N/A,,Clear,0,2013-02-20 11:15:00
4:36 AM,-2.2,-7.6,78,29.74,-9999.0,Calm,Calm,-,N/A,,Clear,0,2013-02-20 11:36:00
4:56 AM,-0.4,-5.8,78,29.74,-9999.0,Calm,Calm,-,N/A,,Clear,0,2013-02-20 11:56:00
5:16 AM,-0.4,-5.8,78,29.74,-9999.0,Calm,Calm,-,N/A,,Clear,0,2013-02-20 12:16:00
5:36 AM,-2.2,-7.6,78,29.74,-9999.0,Calm,Calm,-,N/A,,Clear,0,2013-02-20 12:36:00
5:56 AM,-2.2,-7.6,78,29.74,-9999.0,Calm,Calm,-,N/A,,Clear,0,2013-02-20 12:56:00
6:16 AM,-2.2,-7.6,78,29.74,-9999.0,Calm,Calm,-,N/A,,Clear,0,2013-02-20 13:16:00
6:36 AM,-0.4,-5.8,78,29.75,-9999.0,Calm,Calm,-,N/A,,Scattered Clouds,0,2013-02-20 13:36:00
6:56 AM,-0.4,-7.6,72,29.74,-9999.0,Calm,Calm,-,N/A,,Mostly Cloudy,0,2013-02-20 13:56:00
7:16 AM,-0.4,-5.8,78,29.75,-9999.0,Calm,Calm,-,N/A,,Mostly Cloudy,0,2013-02-20 14:16:00
7:36 AM,-0.4,-5.8,78,29.75,-9999.0,Calm,Calm,-,N/A,,Scattered Clouds,0,2013-02-20 14:36:00
7:55 AM,-0.4,-5.8,78,29.75,-9999.0,Calm,Calm,-,N/A,,Scattered Clouds,0,2013-02-20 14:55:00
8:16 AM,1.4,-5.8,72,29.74,-9999.0,Calm,Calm,-,N/A,,Clear,0,2013-02-20 15:16:00
8:36 AM,1.4,-5.8,72,29.74,-9999.0,Calm,Calm,-,N/A,,Clear,0,2013-02-20 15:36:00
8:56 AM,3.2,-4.0,72,29.74,-9999.0,Calm,Calm,-,N/A,,Clear,0,2013-02-20 15:56:00
9:15 AM,3.2,-4.0,72,29.73,-9999.0,Calm,Calm,-,N/A,,Clear,0,2013-02-20 16:15:00
9:36 AM,3.2,-4.0,72,29.72,-9999.0,Calm,Calm,-,N/A,,Clear,0,2013-02-20 16:36:00
9:56 AM,5.0,-2.2,72,29.71,-9999.0,Calm,Calm,-,N/A,,Scattered Clouds,0,2013-02-20 16:56:00
10:16 AM,8.6,-0.4,67,29.70,-9999.0,Calm,Calm,-,N/A,,Mostly Cloudy,0,2013-02-20 17:16:00
10:35 AM,10.4,1.4,67,29.69,-9999.0,Calm,Calm,-,N/A,,Mostly Cloudy,0,2013-02-20 17:35:00
10:56 AM,10.4,1.4,67,29.69,-9999.0,Calm,Calm,-,N/A,,Scattered Clouds,0,2013-02-20 17:56:00
11:16 AM,12.2,1.4,62,29.67,-9999.0,Calm,Calm,-,N/A,,Clear,0,2013-02-20 18:16:00
11:35 AM,12.2,1.4,62,29.66,-9999.0,Calm,Calm,-,N/A,,Clear,0,2013-02-20 18:35:00
11:56 AM,14.0,3.2,62,29.65,-9999.0,Calm,Calm,-,N/A,,Clear,0,2013-02-20 18:56:00
12:16 PM,14.0,3.2,62,29.63,-9999.0,Calm,Calm,-,N/A,,Clear,0,2013-02-20 19:16:00
12:36 PM,17.6,3.2,53,29.61,-9999.0,Calm,Calm,-,N/A,,Clear,0,2013-02-20 19:36:00
12:56 PM,17.6,5.0,58,29.60,-9999.0,Calm,Calm,-,N/A,,Clear,0,2013-02-20 19:56:00
1:16 PM,17.6,5.0,58,29.58,-9999.0,Calm,Calm,-,N/A,,Clear,0,2013-02-20 20:16:00
1:36 PM,21.2,5.0,50,29.57,-9999.0,Calm,Calm,-,N/A,,Clear,0,2013-02-20 20:36:00
1:56 PM,21.2,5.0,50,29.56,-9999.0,Calm,Calm,-,N/A,,Clear,0,2013-02-20 20:56:00
2:16 PM,23.0,5.0,46,29.55,-9999.0,Calm,Calm,-,N/A,,Clear,0,2013-02-20 21:16:00
2:36 PM,21.2,5.0,50,29.54,-9999.0,Calm,Calm,-,N/A,,Clear,0,2013-02-20 21:36:00
2:55 PM,21.2,5.0,50,29.54,-9999.0,Calm,Calm,-,N/A,,Clear,0,2013-02-20 21:55:00
3:16 PM,21.2,5.0,50,29.53,-9999.0,Calm,Calm,-,N/A,,Clear,0,2013-02-20 22:16:00
3:36 PM,21.2,6.8,54,29.53,-9999.0,Calm,Calm,-,N/A,,Clear,0,2013-02-20 22:36:00
3:56 PM,19.4,6.8,58,29.53,-9999.0,SW,3.5,-,N/A,,Scattered Clouds,230,2013-02-20 22:56:00
4:14 PM,19.4,6.8,58,29.53,-9999.0,Calm,Calm,-,N/A,,Clear,0,2013-02-20 23:14:00
4:34 PM,19.4,6.8,58,29.53,-9999.0,Calm,Calm,-,N/A,,Scattered Clouds,0,2013-02-20 23:34:00
4:42 PM,19.4,6.8,58,29.53,-9999.0,Calm,Calm,-,N/A,,Scattered Clouds,0,2013-02-20 23:42:00
5:05 PM,19.4,6.8,58,29.53,-9999.0,Calm,Calm,-,N/A,,Mostly Cloudy,0,2013-02-21 00:05:00
5:33 PM,19.4,8.6,63,29.53,-9999.0,Calm,Calm,-,N/A,,Overcast,0,2013-02-21 00:33:00
5:51 PM,19.4,8.6,63,29.53,-9999.0,Calm,Calm,-,N/A,,Overcast,0,2013-02-21 00:51:00
6:04 PM,19.4,8.6,63,29.53,-9999.0,Calm,Calm,-,N/A,,Overcast,0,2013-02-21 01:04:00
6:31 PM,19.4,8.6,63,29.54,-9999.0,Calm,Calm,-,N/A,,Overcast,0,2013-02-21 01:31:00
6:51 PM,19.4,8.6,63,29.55,-9999.0,Calm,Calm,-,N/A,,Overcast,0,2013-02-21 01:51:00
7:10 PM,19.4,8.6,63,29.56,-9999.0,Calm,Calm,-,N/A,,Overcast,0,2013-02-21 02:10:00
7:32 PM,19.4,8.6,63,29.56,-9999.0,Calm,Calm,-,N/A,,Overcast,0,2013-02-21 02:32:00
7:51 PM,19.4,10.4,68,29.56,-9999.0,North,3.5,-,N/A,,Overcast,360,2013-02-21 02:51:00
8:08 PM,19.4,10.4,68,29.56,-9999.0,Calm,Calm,-,N/A,,Overcast,0,2013-02-21 03:08:00
8:31 PM,19.4,12.2,74,29.56,-9999.0,Calm,Calm,-,N/A,Snow,Light Snow,0,2013-02-21 03:31:00
8:50 PM,17.6,12.2,79,29.57,-9999.0,Calm,Calm,-,N/A,Snow,Light Snow,0,2013-02-21 03:50:00
9:04 PM,17.6,12.2,79,29.56,-9999.0,Calm,Calm,-,N/A,Snow,Light Snow,0,2013-02-21 04:04:00
9:33 PM,17.6,14.0,86,29.56,-9999.0,Calm,Calm,-,N/A,,Unknown,0,2013-02-21 04:33:00
9:52 PM,17.6,14.0,86,29.57,-9999.0,Calm,Calm,-,N/A,,Unknown,0,2013-02-21 04:52:00
10:12 PM,17.6,14.0,86,29.57,-9999.0,Calm,Calm,-,N/A,,Overcast,0,2013-02-21 05:12:00
10:33 PM,17.6,14.0,86,29.57,-9999.0,Calm,Calm,-,N/A,,Overcast,0,2013-02-21 05:33:00
10:51 PM,17.6,14.0,86,29.57,-9999.0,ESE,3.5,-,N/A,,Unknown,120,2013-02-21 05:51:00
11:12 PM,17.6,14.0,86,29.56,-9999.0,Calm,Calm,-,N/A,,Overcast,0,2013-02-21 06:12:00
11:30 PM,17.6,14.0,86,29.56,-9999.0,Calm,Calm,-,N/A,,Overcast,0,2013-02-21 06:30:00
11:49 PM,17.6,14.0,86,29.56,-9999.0,Calm,Calm,-,N/A,,Unknown,0,2013-02-21 06:49:00